CSZ9325 ZGSZ-ZJSY

Flight info

Callsign CSZ9325
Flight time N/A
Altitude 30100
Route M078S0920 NLG DCT KIBAS R200 BIGRO G221 WL
Aircraft B738/M-SDE2E3FGHIRWZ/LB1

Departure

Time 2026-05-07 14:24
Airport Shenzhen Bao'an International Airport (ZGSZ)

Arrival

Time N/A
Airport Sanya Phoenix International Airport (ZJSY)
Time Latitude Longitude Altitude Speed Heading
2026-05-07 14:17 22.63276 113.80871 14 ft 0 kts 59°
2026-05-07 14:17 22.63281 113.80880 14 ft 4 kts 60°
2026-05-07 14:17 22.63305 113.80924 14 ft 10 kts 60°
2026-05-07 14:18 22.63344 113.81008 16 ft 14 kts 64°
2026-05-07 14:18 22.63408 113.81024 14 ft 12 kts 333°
2026-05-07 14:18 22.63499 113.80974 14 ft 18 kts 333°
2026-05-07 14:18 22.63629 113.80902 14 ft 22 kts 332°
2026-05-07 14:19 22.63761 113.80829 14 ft 21 kts 334°
2026-05-07 14:19 22.63892 113.80758 16 ft 21 kts 333°
2026-05-07 14:19 22.64019 113.80689 14 ft 20 kts 333°
2026-05-07 14:19 22.64141 113.80621 14 ft 19 kts 332°
2026-05-07 14:20 22.64260 113.80556 14 ft 19 kts 334°
2026-05-07 14:20 22.64375 113.80493 14 ft 18 kts 333°
2026-05-07 14:20 22.64486 113.80431 14 ft 18 kts 332°
2026-05-07 14:20 22.64593 113.80371 14 ft 17 kts 332°
2026-05-07 14:21 22.64688 113.80318 14 ft 16 kts 335°
2026-05-07 14:21 22.64789 113.80266 14 ft 16 kts 333°
2026-05-07 14:21 22.64884 113.80212 16 ft 15 kts 333°
2026-05-07 14:21 22.64975 113.80161 14 ft 14 kts 333°
2026-05-07 14:22 22.65056 113.80121 15 ft 11 kts 354°
2026-05-07 14:22 22.65099 113.80181 14 ft 11 kts 66°
2026-05-07 14:22 22.65131 113.80253 14 ft 11 kts 63°
2026-05-07 14:22 22.65170 113.80338 14 ft 12 kts 63°
2026-05-07 14:23 22.65150 113.80390 15 ft 8 kts 153°
2026-05-07 14:23 22.65082 113.80428 14 ft 30 kts 153°
2026-05-07 14:23 22.64572 113.80707 14 ft 131 kts 154°
2026-05-07 14:23 22.63547 113.81279 411 ft 182 kts 153°
2026-05-07 14:24 22.62472 113.81900 1891 ft 166 kts 154°
2026-05-07 14:24 22.61474 113.82437 3194 ft 157 kts 155°
2026-05-07 14:24 22.60497 113.82956 4075 ft 163 kts 154°
2026-05-07 14:24 22.59363 113.83561 4462 ft 202 kts 154°
2026-05-07 14:25 22.57999 113.84290 4740 ft 235 kts 154°